Hourly Data Report for October 13, 2015

All times are specified in Local Standard Time (LST). Add 1 hour to adjust for Daylight Saving Time where and when it is observed.

POND INLET A
NUNAVUT

72°41'22.000" N
77°58'08.000" W
61.60 m
2403206
71095
YIO

Download Data

Hourly Data (October 2015)
Hourly Data Report for October 13, 2015
Temp Definition
°C
Dew Point Temp Definition
°C
Rel Hum Definition
%
Wind Dir Definition
10's deg

Wind Spd Definition
km/h
Visibility Definition
km
Stn Press Definition
kPa
Hmdx Definition


Wind Chill Definition


Weather Definition


TIME
00:00 Legend Double Dagger -1.8 -6.5 70 11 21 16.1 98.94   -8 LegendNANA
01:00 Legend Double Dagger -2.1 -6.7 71 11 26 16.1 98.92   -9 LegendNANA
02:00 Legend Double Dagger -2.2 -7.3 68 11 26 16.1 98.91   -9 LegendNANA
03:00 Legend Double Dagger -1.7 -7.2 66 7 21 16.1 98.91   -8 LegendNANA
04:00 Legend Double Dagger -2.0 -6.8 70 7 11 16.1 98.88   -6 LegendNANA
05:00 Legend Double Dagger -2.2 -6.8 71 7 5 16.1 98.86   -4 LegendNANA
06:00 Legend Double Dagger -1.6 -6.6 69 6 4 16.1 98.87   -3 LegendNANA
07:00 Legend Double Dagger -1.9 -5.9 74 6 9 16.1 98.87   -5 LegendNANA
08:00 Legend Double Dagger -1.6 -5.2 77 6 13 16.1 98.87   -6 LegendNANA
09:00 Legend Double Dagger -1.8 -5.0 79 5 9 16.1 98.88   -5 LegendNANA
10:00 Legend Double Dagger -1.9 -5.8 75 6 8 16.1 98.88   -5 LegendNANA
11:00 Legend Double Dagger -2.4 -5.9 77 6 8 16.1 98.89   -6 LegendNANA
12:00 Legend Double Dagger -2.8 -7.1 73 5 9 16.1 98.90   -6 LegendNANA
13:00 Legend Double Dagger -3.2 -7.0 75 7 5 16.1 98.92   -5 LegendNANA
14:00 Legend Double Dagger -4.0 -7.5 77 19 4 16.1 98.93   -6 LegendNANA
15:00 Legend Double Dagger -5.1 -7.9 81 15 5 16.1 98.93   -7 LegendNANA
16:00 Legend Double Dagger -4.4 -7.4 80 15 5 16.1 98.96   -7 LegendNANA
17:00 Legend Double Dagger -5.0 -7.5 83   0 16.1 98.98     LegendNANA
18:00 Legend Double Dagger -6.1 -8.1 86 15 11 16.1 98.97   -11 LegendNANA
19:00 Legend Double Dagger -5.3 -7.7 83 13 5 16.1 98.99   -8 LegendNANA
20:00 Legend Double Dagger -5.3 -7.8 83 18 8 16.1 98.98   -9 Snow
21:00 Legend Double Dagger -6.9 -8.7 87 14 9 16.1 98.97   -11 LegendNANA
22:00 Legend Double Dagger -5.6 -7.7 85 15 9 16.1 98.96   -10 LegendNANA
23:00 Legend Double Dagger -4.0 -7.1 79 LegendMM 4 16.1 98.95   -6 LegendNANA

Notes on Data Quality.

Legend

  • E = Estimated
  • M = Missing
  • NA = Not Available
  • ‡ = Partner data that is not subject to review by the National Climate Archives
Date modified: